EST,Max TemperatureF,Mean TemperatureF,Min TemperatureF,Max Dew PointF,MeanDew PointF,Min DewpointF,Max Humidity, Mean Humidity, Min Humidity, Max Sea Level PressureIn, Mean Sea Level PressureIn, Min Sea Level PressureIn, Max VisibilityMiles, Mean VisibilityMiles, Min VisibilityMiles, Max Wind SpeedMPH, Mean Wind SpeedMPH, Max Gust SpeedMPH,PrecipitationIn, CloudCover, Events, WindDirDegrees
2013-12-1,38,31,23,28,24,18,88,76,64,30.25,30.08,29.94,10,10,8,8,4,9,0.00,6,,167
2013-12-2,41,38,34,32,30,28,89,77,64,29.96,29.88,29.81,10,10,5,7,2,10,0.00,8,,217
2013-12-3,44,38,32,36,33,28,92,84,76,29.96,29.88,29.82,8,3,0,8,3,10,0.00,7,Fog,86
2013-12-4,53,44,35,41,37,32,92,78,63,30.04,29.97,29.94,10,7,5,16,8,22,0.00,2,,124
2013-12-5,61,49,37,56,48,33,87,80,72,30.00,29.90,29.85,10,6,2,16,8,22,0.34,8,Rain,234
2013-12-6,37,33,28,34,28,24,92,81,69,30.24,30.10,29.98,10,6,1,14,6,18,0.36,8,Rain-Snow,328
2013-12-7,28,22,15,25,16,9,85,73,60,30.58,30.39,30.19,10,10,10,16,7,22,0.01,7,,301
2013-12-8,26,20,13,22,15,8,88,78,67,30.58,30.35,30.14,10,5,1,18,9,25,0.01,7,Snow,110
2013-12-9,36,31,26,34,28,20,96,83,69,30.11,29.99,29.91,10,6,0,25,14,35,0.03,8,Fog,201
2013-12-10,28,24,19,20,15,5,84,65,45,30.17,29.99,29.91,10,6,0,26,15,37,0.01,7,Snow,257
2013-12-11,23,19,15,16,12,7,84,68,52,30.30,30.22,30.14,10,6,0,28,14,36,T,7,Snow,257
2013-12-12,19,13,6,14,4,-3,80,63,46,30.40,30.28,30.20,10,9,1,26,14,36,T,6,Snow,263
2013-12-13,27,21,15,13,8,-2,68,57,46,30.28,30.21,30.17,10,10,10,22,10,30,0.00,5,,258
2013-12-14,29,25,21,26,22,14,85,74,62,30.27,29.96,29.63,10,3,0,20,11,29,0.30,8,Fog-Rain-Snow,119
2013-12-15,34,25,16,31,21,8,92,80,67,29.96,29.72,29.55,10,3,0,28,16,37,0.01,8,Fog-Rain-Snow,262
2013-12-16,19,15,10,9,7,4,73,65,56,30.15,30.05,29.88,10,9,2,24,9,30,T,5,Snow,247
2013-12-17,30,25,19,27,20,9,92,77,62,30.05,29.92,29.86,10,4,0,20,7,25,0.07,8,Fog-Snow,216
2013-12-18,27,23,19,20,18,14,88,76,63,30.16,30.04,29.90,10,7,1,22,12,30,T,7,Snow,248
2013-12-19,44,34,23,30,23,15,74,61,47,30.07,30.04,30.01,10,10,10,25,12,30,0.00,1,,231
2013-12-20,51,46,41,47,37,25,93,68,42,30.00,29.92,29.86,10,9,4,23,10,32,0.15,7,Rain,220
2013-12-21,60,56,51,57,52,47,93,88,83,29.88,29.83,29.70,10,7,2,18,9,26,1.22,8,Rain,213
2013-12-22,65,59,53,57,52,45,90,78,66,29.92,29.76,29.56,10,10,7,28,14,37,0.26,7,Rain,218
2013-12-23,53,40,27,45,32,17,93,78,63,30.25,30.08,29.93,10,8,2,18,9,24,0.12,8,Rain-Snow,281
2013-12-24,28,21,13,21,14,6,88,72,56,30.46,30.23,30.13,10,5,0,22,11,29,T,8,Snow,273
2013-12-25,24,17,10,16,9,5,84,69,54,30.49,30.38,30.17,10,8,2,13,5,15,T,6,Snow,212
2013-12-26,30,26,21,25,21,14,88,71,53,30.32,30.14,30.04,10,5,1,24,10,32,0.10,7,Snow,237
2013-12-27,34,27,19,23,19,14,84,73,61,30.32,30.29,30.22,10,10,10,17,8,22,T,5,,237
2013-12-28,47,40,32,28,24,19,61,55,49,30.22,30.14,30.04,10,10,10,22,12,29,0.00,1,,228
2013-12-29,43,39,35,36,32,20,92,66,39,30.02,29.75,29.63,10,6,0,22,7,28,0.58,7,Fog-Rain,261
2013-12-30,37,27,17,34,17,7,92,74,56,30.18,30.00,29.73,10,8,2,21,10,26,0.01,8,Snow,297
2013-12-31,22,18,14,18,12,6,84,73,61,30.28,30.08,29.94,10,4,0,32,12,40,0.01,8,Fog-Snow,249